Weather in Novosvitlivka

Ukraine / Luhansk Region     48°29′31″N   39°30′21″E
temp.,
°C
wind,
m/s
gust,
m/s
humid.,
%
clouds,
%
prec.,
mm/h
press.,
hPa
HPBL,
m
22 april, thu
thu2200:00+9ssw5108492 0.1 1019252
03:00+8sw49869 0.2 1020227
06:00+7ssw37895 0.0 1021172
09:00+13sw44665 0.0 1022698
12:00+16sw345132 0.8 10221589
15:00+17sw3348100 2.4 10211648
18:00+16s2352100 0.2 1021971
21:00+12w2269100 0.9 102218
23 april, fri
fri2300:00+11sw1174100 0.3 102213
03:00+9sw2279100 0.3 102222
06:00+9sw228117 0.0 102237
09:00+14sw34606 0.0 1022655
12:00+17sw444473 0.1 10202187
15:00+16sw454981 0.1 10191356
18:00+15sw585575 0.0 1018524
21:00+11ssw51070100 0.0 1018247
24 april, sat
sat2400:00+9ssw41070100 0.0 1017265
03:00+10sw41267100 0.0 1016417
06:00+8ssw5108171 0.0 1015278
09:00+12sw7967100 0.1 10141108
12:00+8w61084100 1.3 1016840
15:00+13w8104595 1.4 10152154
18:00+12w694589 0.0 10151390
21:00+8w81361100 0.0 1018720
25 april, sun
sun2500:00+5w612600 0.0 1019585
03:00+4w612666 0.0 1020575
06:00+4w586979 0.0 1021823
09:00+7wnw57565 0.0 10211131
12:00+11wnw563948 0.0 10212080
15:00+12wnw4534100 0.0 10202272
18:00+12wnw2338100 0.0 10191927
21:00+9s1144100 0.0 102010
26 april, mon
mon2600:00+7s2250100 0.0 101921
03:00+6ssw2262100 0.0 101917
06:00+6ssw2264100 0.0 101827
09:00+11sw2346100 0.0 1017668
12:00+14sw453792 0.0 10162272
15:00+14sw6738100 0.0 10152204
18:00+9wnw8107453 0.4 1016893
21:00+7nw48683 0.4 1017419